[[{"header":{"parameterUnit":"m.s-1","parameterCategory":1,"la1":30.2991,"la2":30.254,"lo1":-89.0895,"lo2":-89.0444,"dy":0.0017,"dx":0.0017,"nx":28,"ny":28,"refTime":"2024-07-25T21:00:00:Z","depth":0,"parameterNumber":2,"parameterNumberName":"U-component_of_WINDS"},"data":[0,0,0,0,0,0,0,0,0,0,0,0,0,0,0,0,0,0,0,0,0,0,0,0,0,0,0,0,0,0,0,0,0,0,0,0,0,0,0,0,0,0,0,0,0,0,0,0,0,0,0,0,0,0,0,0,0,0,0.284,0.2841,0,0.2944,0.2945,0.2946,0.3007,0.3007,0.3007,0.3007,0.3116,0.3118,0.3121,0,0,0,0,0,0,0,0,0,0,0,0,0,0.2695,0.2697,0.284,0.2841,0.2842,0.2943,0.2945,0.2946,0.3007,0.3007,0.3007,0.3007,0.3115,0.3118,0.3121,0,0,0,0,0,0,0,0,0,0,0,0,0,0.2774,0.2698,0.2839,0.2884,0.289,0.2943,0.2945,0.2947,0.3006,0.3007,0.3007,0.3008,0.3114,0.3117,0.3121,0.3139,0,0,0.3134,0.3135,0,0,0,0,0,0,0,0,0.2769,0.2779,0.2877,0.2881,0.2887,0.2962,0.2934,0.3011,0.3006,0.2962,0.3007,0.3008,0.3064,0.3072,0.3091,0.3144,0.3149,0.3134,0.3136,0.3138,0.3139,0,0,0,0,0,0,0,0.2764,0.2775,0.2881,0.2878,0.2884,0.29,0.2912,0.2948,0.301,0.2966,0.2971,0.2982,0.3067,0.3087,0.3094,0.315,0.3134,0.3137,0.314,0.3141,0.3221,0.3221,0,0,0,0,0,0,0.2751,0.277,0.2878,0.2884,0.2828,0.2902,0.2915,0.2938,0.301,0.3021,0.2982,0.2984,0.308,0.309,0.3098,0.3123,0.3138,0.3142,0.3144,0.3222,0.3221,0.3221,0,0,0,0,0,0,0.2748,0.276,0.2873,0.2828,0.2844,0.2904,0.2929,0.294,0.296,0.3022,0.3033,0.299,0.3081,0.3093,0.3128,0.3127,0.3144,0.3147,0.3222,0.3222,0.3221,0.3172,0,0,0,0,0,0,0.2743,0.2758,0.2765,0.2828,0.2846,0.2901,0.2929,0.2942,0.2966,0.2971,0.3033,0.3044,0.3082,0.3122,0.3132,0.3133,0.315,0.3222,0.3222,0.3221,0.3174,0.317,0.3167,0,0,0,0,0,0.2738,0.2748,0.2765,0.2778,0.2856,0.2901,0.2911,0.2955,0.2966,0.2974,0.3013,0.3042,0.3126,0.3125,0.3137,0.3139,0.3223,0.3222,0.3221,0.3176,0.3171,0.3167,0,0,0,0,0,0,0.2685,0.2757,0.2777,0.2808,0.2848,0.2911,0.2922,0.2948,0.2986,0.2989,0.3042,0.3056,0.3086,0.3116,0.3114,0.3159,0.3177,0.3179,0.3138,0.3134,0.3131,0.3123,0.3154,0,0,0,0,0,0.2676,0.2706,0.2768,0.2789,0.2808,0.2861,0.2882,0.2912,0.2956,0.2973,0.3016,0.3057,0.3093,0.3115,0.3152,0.3179,0.3193,0.3186,0.3182,0.3179,0.318,0.3196,0.3193,0.3219,0.3219,0.3219,0,0,0.266,0.2703,0.2719,0.278,0.2814,0.2844,0.2875,0.2906,0.2928,0.2978,0.3014,0.3046,0.3096,0.3126,0.3142,0.3153,0.3176,0.3178,0.3175,0.3178,0.3195,0.3192,0.319,0.3219,0.3219,0.3219,0,0,0.2645,0.2681,0.2702,0.2735,0.2786,0.2822,0.2826,0.2886,0.2909,0.2945,0.2983,0.301,0.3071,0.3105,0.313,0.3126,0.3153,0.3137,0.3117,0.3132,0.313,0.3128,0.3126,0.3125,0.3137,0.3137,0.3137,0,0.2618,0.2664,0.271,0.2738,0.2763,0.2808,0.283,0.2861,0.2921,0.2938,0.2948,0.3025,0.3062,0.31,0.3099,0.3118,0.3125,0.313,0.3126,0.3125,0.3124,0.3123,0.3122,0.3135,0.3135,0.3135,0.3135,0,0.2629,0.266,0.2671,0.2727,0.2754,0.2778,0.2827,0.2849,0.2876,0.291,0.2946,0.2992,0.3038,0.3049,0.3077,0.3092,0.3097,0.3116,0.3135,0.3119,0.3118,0.3118,0.3131,0.3132,0.3133,0.3133,0,0,0.2584,0.2664,0.2667,0.2693,0.2752,0.2777,0.2803,0.2847,0.2865,0.2905,0.2928,0.2977,0.2995,0.3024,0.3055,0.3068,0.3061,0.3086,0.3088,0.3079,0.3079,0.3064,0.3063,0.308,0.308,0.308,0.3075,0,0.2577,0.2626,0.2667,0.2701,0.273,0.2774,0.2797,0.2835,0.2867,0.2897,0.2933,0.2967,0.2988,0.3006,0.302,0.3059,0.3062,0.306,0.3102,0.3103,0.3087,0.3063,0.3047,0.304,0.3075,0.3075,0.3075,0,0.2576,0.2613,0.2649,0.2705,0.2718,0.2738,0.2781,0.2809,0.2854,0.2876,0.2907,0.294,0.2969,0.2985,0.3027,0.3024,0.3044,0.3065,0.3066,0.3071,0.3088,0.3067,0.3039,0.3038,0.3076,0.3076,0.3076,0,0.2539,0.2598,0.2627,0.2648,0.2713,0.2726,0.2754,0.2799,0.2822,0.286,0.2876,0.2917,0.2939,0.297,0.3013,0.302,0.3049,0.3069,0.3069,0.3067,0.3073,0.3072,0.3047,0.3086,0.3086,0.3086,0.3086,0,0.2527,0.2547,0.2611,0.2629,0.2653,0.27,0.2723,0.2754,0.2794,0.2819,0.2859,0.2881,0.2936,0.2966,0.2999,0.3028,0.3038,0.3057,0.3066,0.3053,0.305,0.3066,0.3068,0.3086,0.3086,0.3086,0.3086,0,0.2489,0.2533,0.2567,0.2626,0.2641,0.2656,0.2706,0.2725,0.2759,0.279,0.28,0.2853,0.289,0.2935,0.2986,0.3009,0.3034,0.3047,0.3018,0.3023,0.302,0.3019,0.3005,0.3005,0.3043,0.3043,0.3042,0,0.2479,0.2495,0.2555,0.2574,0.26,0.2631,0.2655,0.2701,0.2725,0.2776,0.2788,0.2827,0.2861,0.2917,0.296,0.2999,0.3014,0.3006,0.302,0.3007,0.3013,0.3011,0.3013,0.3002,0.3002,0.3001,0.3001,0,0.2455,0.2475,0.2507,0.2547,0.2574,0.2608,0.2643,0.2657,0.2711,0.2735,0.2772,0.2798,0.2849,0.2887,0.2931,0.2961,0.2989,0.2996,0.2998,0.2985,0.2967,0.2976,0.3008,0.2996,0.2996,0.2997,0.2997,0.2997,0.243,0.2446,0.249,0.2525,0.2556,0.2588,0.2608,0.2644,0.2676,0.2721,0.2747,0.2782,0.2826,0.2888,0.2916,0.2945,0.2956,0.2959,0.2959,0.2959,0.2955,0.2962,0.2953,0.2953,0.2954,0.2954,0.2954,0,0.2407,0.2438,0.2469,0.2517,0.2544,0.2568,0.2608,0.2629,0.266,0.2698,0.273,0.2771,0.2808,0.2854,0.2894,0.2908,0.2922,0.2917,0.2916,0.2922,0.2943,0.2937,0.2905,0.2905,0.2905,0.2905,0.2905,0.2905,0.2399,0.2427,0.2453,0.2497,0.2528,0.2562,0.2583,0.2613,0.2643,0.2688,0.2718,0.2747,0.2788,0.2831,0.2866,0.2878,0.2891,0.2881,0.2898,0.2917,0.2921,0.2925,0.292,0.2884,0.2884,0.2874,0.2874,0.2874]},{"header":{"parameterUnit":"m.s-1","parameterCategory":1,"la1":30.2991,"la2":30.254,"lo1":-89.0895,"lo2":-89.0444,"dy":0.0017,"dx":0.0017,"nx":28,"ny":28,"refTime":"2024-07-25T21:00:00:Z","depth":0,"parameterNumber":3,"parameterNumberName":"V-component_of_WINDS"},"data":[0,0,0,0,0,0,0,0,0,0,0,0,0,0,0,0,0,0,0,0,0,0,0,0,0,0,0,0,0,0,0,0,0,0,0,0,0,0,0,0,0,0,0,0,0,0,0,0,0,0,0,0,0,0,0,0,0,0,2.784,2.7839,0,2.7752,2.7751,2.775,2.7733,2.7734,2.7734,2.7735,2.7637,2.7634,2.7631,0,0,0,0,0,0,0,0,0,0,0,0,0,2.7986,2.7984,2.784,2.7839,2.7838,2.7752,2.7751,2.775,2.7733,2.7734,2.7735,2.7735,2.7638,2.7635,2.7631,0,0,0,0,0,0,0,0,0,0,0,0,0,2.7913,2.7983,2.7841,2.782,2.7817,2.7753,2.7751,2.775,2.7733,2.7734,2.7735,2.7736,2.764,2.7635,2.763,2.7578,0,0,2.7615,2.7613,0,0,0,0,0,0,0,0,2.7917,2.7908,2.7824,2.7821,2.7818,2.7755,2.7767,2.7692,2.7732,2.7764,2.7735,2.7736,2.7675,2.7667,2.7648,2.7574,2.7569,2.7615,2.7612,2.761,2.7608,0,0,0,0,0,0,0,2.7922,2.7911,2.7805,2.7822,2.7819,2.7812,2.7803,2.7752,2.7714,2.7762,2.776,2.7751,2.7674,2.7653,2.7646,2.7568,2.7615,2.761,2.7607,2.7605,2.7444,2.7443,0,0,0,0,0,0,2.7932,2.7916,2.7808,2.7803,2.7871,2.7809,2.7798,2.7774,2.7715,2.7707,2.775,2.775,2.7661,2.7651,2.7642,2.7576,2.761,2.7605,2.7602,2.7446,2.7444,2.7443,0,0,0,0,0,0,2.7935,2.7923,2.7812,2.7859,2.7844,2.7805,2.7778,2.7771,2.7751,2.7706,2.7698,2.7736,2.7661,2.7649,2.7594,2.7573,2.7603,2.7598,2.7447,2.7445,2.7443,2.7445,0,0,0,0,0,0,2.794,2.7924,2.7906,2.7859,2.7842,2.7767,2.7776,2.7769,2.7743,2.7743,2.7691,2.7684,2.7661,2.7602,2.759,2.7566,2.7594,2.7449,2.7446,2.7444,2.7446,2.7443,2.744,0,0,0,0,0,2.7945,2.7908,2.7905,2.7892,2.7818,2.7766,2.7756,2.7733,2.7742,2.7722,2.7693,2.7685,2.7578,2.7596,2.7582,2.7557,2.745,2.7447,2.7444,2.7448,2.7444,2.744,0,0,0,0,0,0,2.7951,2.7902,2.7897,2.7845,2.781,2.7764,2.7738,2.773,2.769,2.7691,2.7662,2.7651,2.7597,2.7572,2.7594,2.7503,2.7514,2.7508,2.7522,2.7517,2.7514,2.752,2.759,0,0,0,0,0,2.7947,2.7912,2.7869,2.7827,2.781,2.7777,2.7753,2.7739,2.7701,2.7685,2.7652,2.7613,2.757,2.7543,2.7501,2.7443,2.743,2.7419,2.7416,2.7414,2.7408,2.7374,2.7368,2.7433,2.7433,2.7433,0,0,2.7937,2.7906,2.7884,2.7827,2.7799,2.776,2.7765,2.7723,2.7693,2.7678,2.7625,2.7599,2.7554,2.7497,2.747,2.7474,2.7388,2.741,2.7408,2.7404,2.737,2.7364,2.7358,2.7431,2.7431,2.7431,0,0,2.7899,2.7873,2.7834,2.7806,2.7763,2.7741,2.7732,2.7687,2.767,2.7616,2.7604,2.7566,2.7494,2.7462,2.7436,2.7385,2.7376,2.7372,2.7355,2.7322,2.7317,2.7312,2.7292,2.7285,2.7367,2.7367,2.7367,0,2.7891,2.7835,2.7814,2.7774,2.7748,2.7735,2.7694,2.7667,2.7612,2.7593,2.7599,2.7507,2.7476,2.741,2.7398,2.7378,2.7365,2.7377,2.732,2.7315,2.731,2.729,2.7283,2.7367,2.7367,2.7367,2.7367,0,2.7826,2.7787,2.776,2.771,2.7681,2.7641,2.7612,2.7585,2.7573,2.755,2.7494,2.7456,2.7406,2.7389,2.7377,2.7322,2.7325,2.7326,2.7336,2.7304,2.7285,2.7277,2.7367,2.7367,2.7367,2.7367,0,0,2.7788,2.7728,2.7718,2.7695,2.7647,2.7615,2.7573,2.7526,2.7502,2.7465,2.7427,2.7366,2.7366,2.7337,2.732,2.7291,2.7251,2.7295,2.7293,2.7286,2.7186,2.7184,2.7176,2.7246,2.7244,2.7243,2.7189,0,2.7742,2.767,2.765,2.7587,2.7549,2.7536,2.7499,2.7464,2.7442,2.7404,2.7378,2.7335,2.7339,2.7321,2.7292,2.7262,2.723,2.7266,2.7207,2.7205,2.7217,2.7167,2.7165,2.7116,2.7182,2.718,2.7179,0,2.7679,2.7643,2.7577,2.7534,2.7517,2.7484,2.7439,2.7405,2.7364,2.7349,2.7317,2.7303,2.7255,2.727,2.7202,2.7227,2.7202,2.7184,2.7181,2.7173,2.7189,2.7155,2.71,2.7091,2.7168,2.7169,2.717,0,2.7656,2.759,2.7542,2.7523,2.7471,2.7448,2.7425,2.7386,2.7359,2.7318,2.73,2.7254,2.7228,2.7192,2.7165,2.7178,2.7099,2.7112,2.7083,2.7084,2.7065,2.7067,2.7003,2.7053,2.7053,2.7053,2.7053,0,2.7606,2.7566,2.7531,2.7501,2.7454,2.7431,2.7385,2.7361,2.7326,2.7289,2.7275,2.724,2.7208,2.7167,2.7146,2.7092,2.7081,2.7066,2.706,2.7066,2.7068,2.7047,2.7049,2.7051,2.7051,2.7052,2.7052,0,2.7572,2.7547,2.7493,2.745,2.7437,2.7405,2.7366,2.7335,2.7312,2.7265,2.7253,2.7216,2.7168,2.7138,2.7077,2.7062,2.7003,2.6999,2.7017,2.7014,2.6987,2.6989,2.6906,2.6893,2.6954,2.6953,2.6953,0,2.7541,2.7509,2.7463,2.7439,2.7416,2.7376,2.7349,2.7325,2.7296,2.7248,2.7222,2.7174,2.7134,2.7057,2.7023,2.6975,2.6969,2.6944,2.6962,2.6968,2.6966,2.6968,2.6963,2.694,2.6939,2.6939,2.6939,0,2.7487,2.7477,2.744,2.7397,2.7366,2.7331,2.7296,2.7276,2.7245,2.7213,2.7166,2.7135,2.7073,2.7024,2.6974,2.6947,2.6936,2.6934,2.6924,2.6929,2.6939,2.6931,2.7007,2.6935,2.6935,2.6936,2.6936,2.6936,2.7452,2.7423,2.7386,2.7344,2.7316,2.7283,2.7252,2.7226,2.7187,2.7136,2.7123,2.7073,2.7031,2.6963,2.6935,2.6893,2.6896,2.6883,2.6879,2.6875,2.6874,2.6948,2.6884,2.6884,2.6884,2.6884,2.6884,0,2.7396,2.7372,2.7334,2.7287,2.7253,2.725,2.7211,2.7182,2.7138,2.7102,2.7063,2.7007,2.696,2.6923,2.6873,2.6846,2.684,2.6834,2.6835,2.6828,2.6875,2.6887,2.684,2.684,2.684,2.684,2.684,2.684,2.7363,2.7314,2.7299,2.7235,2.721,2.7162,2.7139,2.7108,2.7079,2.7018,2.698,2.6957,2.6919,2.6867,2.6822,2.6812,2.6793,2.6788,2.6776,2.682,2.6825,2.6829,2.6841,2.6784,2.6784,2.6733,2.6732,2.6732]}]]